EZY19B EGKK-LFMN

Flight info

Callsign EZY19B
Flight time 1h 33m
Altitude 33000
Route SFD Y47 BENBO L612 HAWKE UL612 VEULE DCT KOTAP DCT KETEX DCT KOTIS DCT KUKOR DCT UTUVA DCT LERGA DCT LIQID DCT LATAM DCT TUNUR DCT NISAR
Aircraft A320/M-SDE3FGHIRWY/LB1

Departure

Time 2026-05-04 09:49
Airport London Gatwick Airport (EGKK)

Arrival

Time 2026-05-04 11:22
Airport Nice-Côte d'Azur Airport (LFMN)
Time Latitude Longitude Altitude Speed Heading
2026-05-04 08:57 51.15637 -0.17848 204 ft 0 kts 167°
2026-05-04 09:37 51.15718 -0.17821 213 ft 0 kts 257°
2026-05-04 09:40 51.15713 -0.17856 209 ft 7 kts 257°
2026-05-04 09:40 51.15703 -0.17928 208 ft 6 kts 257°
2026-05-04 09:40 51.15694 -0.17996 204 ft 8 kts 257°
2026-05-04 09:41 51.15678 -0.18111 204 ft 13 kts 257°
2026-05-04 09:42 51.15197 -0.18243 213 ft 15 kts 230°
2026-05-04 09:43 51.15176 -0.18395 207 ft 13 kts 258°
2026-05-04 09:43 51.15156 -0.18531 212 ft 12 kts 256°
2026-05-04 09:43 51.15137 -0.18664 203 ft 14 kts 259°
2026-05-04 09:43 51.15115 -0.18842 214 ft 19 kts 257°
2026-05-04 09:44 51.15084 -0.19063 211 ft 22 kts 258°
2026-05-04 09:44 51.15048 -0.19249 210 ft 13 kts 226°
2026-05-04 09:44 51.14976 -0.19278 211 ft 9 kts 210°
2026-05-04 09:46 51.14739 -0.20908 215 ft 30 kts 258°
2026-05-04 09:46 51.14702 -0.21170 204 ft 20 kts 257°
2026-05-04 09:46 51.14677 -0.21312 207 ft 6 kts 235°
2026-05-04 09:47 51.14637 -0.21332 207 ft 6 kts 174°
2026-05-04 09:47 51.14598 -0.21318 214 ft 7 kts 166°
2026-05-04 09:49 51.15493 -0.13994 2184 ft 186 kts 78°
2026-05-04 09:49 51.15789 -0.11854 2470 ft 210 kts 77°
2026-05-04 09:49 51.16114 -0.09493 3066 ft 222 kts 79°
2026-05-04 09:51 51.07759 -0.02564 6005 ft 268 kts 167°
2026-05-04 09:51 51.05951 -0.01854 6009 ft 268 kts 165°
2026-05-04 09:51 51.04153 -0.01058 6010 ft 269 kts 164°
2026-05-04 09:51 51.02360 -0.00218 6000 ft 269 kts 163°
2026-05-04 09:52 51.00561 0.00640 5991 ft 269 kts 163°
2026-05-04 09:52 50.98774 0.01498 5993 ft 268 kts 163°
2026-05-04 09:52 50.96985 0.02356 5992 ft 269 kts 163°
2026-05-04 09:52 50.95192 0.03212 5994 ft 269 kts 163°
2026-05-04 09:53 50.93394 0.04063 5994 ft 270 kts 163°
2026-05-04 09:53 50.91596 0.04912 5993 ft 270 kts 163°
2026-05-04 09:53 50.89797 0.05761 5996 ft 270 kts 163°
2026-05-04 09:53 50.88001 0.06606 5993 ft 270 kts 163°
2026-05-04 09:54 50.86205 0.07449 5993 ft 268 kts 163°
2026-05-04 09:54 50.84435 0.08277 6003 ft 269 kts 163°
2026-05-04 09:54 50.82648 0.09110 5992 ft 268 kts 163°
2026-05-04 09:54 50.80859 0.09945 5992 ft 268 kts 163°
2026-05-04 09:55 50.79070 0.10781 5994 ft 269 kts 163°
2026-05-04 09:55 50.77273 0.11585 5996 ft 269 kts 168°
2026-05-04 09:55 50.75417 0.11812 6012 ft 269 kts 184°
2026-05-04 09:55 50.73562 0.11247 6721 ft 272 kts 194°
2026-05-04 09:56 50.71717 0.10549 7638 ft 273 kts 193°
2026-05-04 09:56 50.69854 0.09878 8512 ft 276 kts 193°
2026-05-04 09:56 50.67973 0.09215 9380 ft 279 kts 193°
2026-05-04 09:56 50.66067 0.08543 10205 ft 282 kts 193°
2026-05-04 09:57 50.64090 0.07838 10566 ft 303 kts 193°
2026-05-04 09:57 50.61958 0.07075 10790 ft 326 kts 193°
2026-05-04 09:57 50.59672 0.06258 11029 ft 346 kts 193°
2026-05-04 09:57 50.57289 0.05405 11590 ft 354 kts 193°
2026-05-04 09:58 50.54874 0.04533 12286 ft 358 kts 193°
2026-05-04 09:58 50.52435 0.03649 12999 ft 362 kts 193°
2026-05-04 09:58 50.49971 0.02765 13699 ft 365 kts 191°
2026-05-04 10:00 50.33469 0.13088 17892 ft 388 kts 148°
2026-05-04 10:00 50.31205 0.15418 18440 ft 391 kts 148°
2026-05-04 10:02 50.14954 0.32104 21797 ft 408 kts 149°
2026-05-04 10:04 49.98040 0.49431 24596 ft 423 kts 150°
2026-05-04 10:04 49.95574 0.51939 24965 ft 424 kts 150°
2026-05-04 10:04 49.93105 0.54451 25346 ft 425 kts 150°
2026-05-04 10:04 49.90624 0.56974 25699 ft 427 kts 150°
2026-05-04 10:05 49.88137 0.59499 26036 ft 428 kts 150°
2026-05-04 10:05 49.85632 0.62036 26367 ft 430 kts 150°
2026-05-04 10:05 49.83176 0.64597 26671 ft 432 kts 148°
2026-05-04 10:05 49.80683 0.67325 26992 ft 434 kts 148°
2026-05-04 10:06 49.78267 0.70044 27288 ft 436 kts 147°
2026-05-04 10:06 49.75783 0.72864 27588 ft 438 kts 147°
2026-05-04 10:06 49.73353 0.75613 27876 ft 439 kts 147°
2026-05-04 10:08 49.58454 0.92027 30254 ft 434 kts 148°
2026-05-04 10:08 49.56026 0.94679 30630 ft 432 kts 148°
2026-05-04 10:08 49.53577 0.97353 31004 ft 430 kts 148°
2026-05-04 10:08 49.51144 1.00013 31377 ft 428 kts 148°
2026-05-04 10:09 49.48719 1.02662 31758 ft 426 kts 148°
2026-05-04 10:09 49.46309 1.05293 32160 ft 424 kts 148°
2026-05-04 10:09 49.43907 1.07907 32567 ft 422 kts 148°
2026-05-04 10:09 49.41515 1.10503 32920 ft 420 kts 148°
2026-05-04 10:10 49.36733 1.15679 33002 ft 421 kts 148°
2026-05-04 10:10 49.31940 1.20862 33003 ft 421 kts 148°
2026-05-04 10:11 49.27147 1.26039 33002 ft 422 kts 148°
2026-05-04 10:11 49.22355 1.31203 33001 ft 422 kts 148°
2026-05-04 10:12 49.17560 1.36362 32981 ft 419 kts 149°
2026-05-04 10:12 49.12826 1.41431 32965 ft 415 kts 149°
2026-05-04 10:13 49.08845 1.45678 32965 ft 417 kts 149°
2026-05-04 10:13 49.04084 1.50758 32964 ft 419 kts 149°
2026-05-04 10:14 48.99303 1.55854 32969 ft 419 kts 149°
2026-05-04 10:16 48.80150 1.76109 32952 ft 420 kts 149°
2026-05-04 10:16 48.75322 1.81204 32971 ft 420 kts 149°
2026-05-04 10:17 48.70522 1.86244 32982 ft 419 kts 149°
2026-05-04 10:19 48.51328 2.06249 32974 ft 419 kts 149°
2026-05-04 10:19 48.46522 2.11240 32974 ft 419 kts 150°
2026-05-04 10:20 48.41711 2.16215 32939 ft 420 kts 150°
2026-05-04 10:20 48.36892 2.21193 32952 ft 421 kts 150°
2026-05-04 10:21 48.32063 2.26161 32967 ft 421 kts 150°
2026-05-04 10:21 48.26988 2.30411 32975 ft 414 kts 163°
2026-05-04 10:22 48.18726 2.33811 32963 ft 412 kts 168°
2026-05-04 10:23 48.13187 2.36025 32969 ft 412 kts 167°
2026-05-04 10:25 47.91318 2.46948 32985 ft 414 kts 165°
2026-05-04 10:25 47.85843 2.49631 32980 ft 414 kts 165°
2026-05-04 10:26 47.80371 2.52314 32972 ft 414 kts 165°
2026-05-04 10:26 47.74903 2.55012 32964 ft 414 kts 165°
2026-05-04 10:27 47.69428 2.57702 32969 ft 414 kts 165°
2026-05-04 10:27 47.63953 2.60382 32974 ft 414 kts 165°
2026-05-04 10:28 47.58478 2.63051 32977 ft 414 kts 165°
2026-05-04 10:28 47.52996 2.65715 32976 ft 414 kts 165°
2026-05-04 10:29 47.47517 2.68387 32979 ft 415 kts 165°
2026-05-04 10:29 47.42037 2.71058 32980 ft 415 kts 165°
2026-05-04 10:30 47.36551 2.73714 32983 ft 415 kts 165°
2026-05-04 10:30 47.31067 2.76359 32984 ft 415 kts 165°
2026-05-04 10:31 47.25585 2.79001 32987 ft 415 kts 165°
2026-05-04 10:32 47.06425 2.88202 32966 ft 414 kts 166°
2026-05-04 10:33 47.00945 2.90819 32984 ft 414 kts 166°
2026-05-04 10:33 46.95470 2.93422 32992 ft 414 kts 166°
2026-05-04 10:34 46.89986 2.96030 32997 ft 414 kts 165°
2026-05-04 10:34 46.84503 2.98634 32988 ft 414 kts 165°
2026-05-04 10:35 46.79017 3.01234 32997 ft 415 kts 165°
2026-05-04 10:35 46.73527 3.03829 32991 ft 415 kts 165°
2026-05-04 10:36 46.68037 3.06409 32989 ft 415 kts 165°
2026-05-04 10:36 46.62540 3.08992 32988 ft 415 kts 165°
2026-05-04 10:37 46.57047 3.11573 32984 ft 415 kts 165°
2026-05-04 10:37 46.51568 3.14213 32986 ft 415 kts 164°
2026-05-04 10:39 46.32579 3.24564 32967 ft 416 kts 163°
2026-05-04 10:40 46.27171 3.27444 32975 ft 417 kts 163°
2026-05-04 10:40 46.21731 3.30343 32981 ft 417 kts 163°
2026-05-04 10:41 46.16287 3.33247 32982 ft 417 kts 163°
2026-05-04 10:41 46.10844 3.36149 32982 ft 417 kts 163°
2026-05-04 10:42 46.05390 3.39040 32983 ft 417 kts 163°
2026-05-04 10:42 45.99938 3.41923 32981 ft 418 kts 163°
2026-05-04 10:43 45.94484 3.44808 32983 ft 418 kts 163°
2026-05-04 10:45 45.72431 3.55125 32986 ft 416 kts 167°
2026-05-04 10:45 45.66865 3.57473 32977 ft 417 kts 167°
2026-05-04 10:46 45.61303 3.59868 32991 ft 417 kts 167°
2026-05-04 10:46 45.55729 3.62259 32995 ft 418 kts 167°
2026-05-04 10:47 45.50155 3.64642 32988 ft 418 kts 167°
2026-05-04 10:47 45.44581 3.67022 32992 ft 418 kts 167°
2026-05-04 10:49 45.23415 3.80320 33002 ft 441 kts 133°
2026-05-04 10:50 45.19997 3.87652 33010 ft 448 kts 128°
2026-05-04 10:52 45.06425 4.17302 33029 ft 448 kts 129°
2026-05-04 10:52 45.02916 4.24580 33006 ft 444 kts 135°
2026-05-04 10:54 44.87024 4.49044 33036 ft 441 kts 138°
2026-05-04 10:56 44.70270 4.74557 33046 ft 446 kts 139°
2026-05-04 10:57 44.66049 4.80943 33050 ft 446 kts 139°
2026-05-04 10:57 44.61850 4.87353 33046 ft 446 kts 137°
2026-05-04 10:58 44.57753 4.93911 33045 ft 447 kts 136°
2026-05-04 10:58 44.53677 5.00513 33021 ft 448 kts 136°
2026-05-04 10:59 44.49283 5.06613 33013 ft 440 kts 149°
2026-05-04 10:59 44.43985 5.10693 33022 ft 433 kts 161°
2026-05-04 11:00 44.38495 5.14209 33029 ft 435 kts 160°
2026-05-04 11:02 44.16495 5.28295 33030 ft 437 kts 161°
2026-05-04 11:05 43.81088 5.70805 24580 ft 502 kts 130°
2026-05-04 11:06 43.79055 5.74551 24530 ft 469 kts 130°
2026-05-04 11:06 43.77151 5.78078 23522 ft 451 kts 130°
2026-05-04 11:06 43.75258 5.81566 21636 ft 455 kts 130°
2026-05-04 11:06 43.73375 5.85020 20717 ft 440 kts 130°
2026-05-04 11:08 43.61553 6.06525 16698 ft 387 kts 130°
2026-05-04 11:10 43.53988 6.30502 13066 ft 355 kts 114°
2026-05-04 11:12 43.46908 6.48474 11095 ft 292 kts 137°
2026-05-04 11:12 43.45510 6.50490 10772 ft 290 kts 137°
2026-05-04 11:12 43.44119 6.52491 10418 ft 288 kts 137°
2026-05-04 11:12 43.42749 6.54460 10165 ft 282 kts 137°
2026-05-04 11:13 43.41398 6.56401 9647 ft 281 kts 137°
2026-05-04 11:13 43.40125 6.58421 9173 ft 280 kts 126°
2026-05-04 11:13 43.39348 6.60857 8762 ft 280 kts 106°
2026-05-04 11:13 43.39195 6.63527 8384 ft 282 kts 88°
2026-05-04 11:14 43.39633 6.66169 8002 ft 284 kts 78°
2026-05-04 11:14 43.40190 6.68770 7640 ft 282 kts 77°
2026-05-04 11:14 43.40738 6.71343 7253 ft 280 kts 78°
2026-05-04 11:16 43.44308 6.88384 5418 ft 236 kts 78°
2026-05-04 11:16 43.44753 6.90508 5320 ft 226 kts 76°
2026-05-04 11:16 43.45210 6.92535 5218 ft 219 kts 67°
2026-05-04 11:17 43.46074 6.94260 5034 ft 223 kts 51°
2026-05-04 11:17 43.47172 6.95753 4780 ft 221 kts 49°
2026-05-04 11:19 43.54513 7.05781 2958 ft 208 kts 47°
2026-05-04 11:19 43.55558 7.07210 2690 ft 210 kts 47°
2026-05-04 11:19 43.56584 7.08614 2411 ft 212 kts 48°
2026-05-04 11:19 43.57635 7.10053 2124 ft 212 kts 47°
2026-05-04 11:20 43.58669 7.11468 1849 ft 208 kts 47°
2026-05-04 11:20 43.59693 7.12869 1583 ft 206 kts 48°
2026-05-04 11:20 43.60701 7.14250 1313 ft 201 kts 49°
2026-05-04 11:20 43.61676 7.15588 1039 ft 194 kts 47°
2026-05-04 11:22 43.66206 7.21812 22 ft 30 kts 45°
2026-05-04 11:22 43.66348 7.21981 24 ft 20 kts 25°
2026-05-04 11:23 43.66481 7.22043 22 ft 13 kts 20°
2026-05-04 11:23 43.66542 7.22041 22 ft 2 kts 333°
2026-05-04 11:24 43.66574 7.21997 23 ft 6 kts 316°
2026-05-04 11:25 43.66603 7.21961 22 ft 5 kts 317°
2026-05-04 11:25 43.66626 7.21928 22 ft 6 kts 314°
2026-05-04 11:25 43.66643 7.21867 22 ft 9 kts 260°
2026-05-04 11:26 43.66534 7.21704 22 ft 13 kts 225°
2026-05-04 11:27 43.66224 7.21237 22 ft 4 kts 306°
2026-05-04 11:28 43.66233 7.21211 23 ft 4 kts 294°
2026-05-04 11:28 43.66247 7.21193 22 ft 2 kts 330°
2026-05-04 11:28 43.66258 7.21189 22 ft 1 kts 346°
2026-05-04 11:28 43.66265 7.21188 22 ft 1 kts 354°
2026-05-04 11:29 43.66269 7.21187 22 ft 0 kts 354°
2026-05-04 11:29 43.66275 7.21186 22 ft 1 kts 352°
2026-05-04 11:29 43.66278 7.21185 22 ft 0 kts 351°